Year,Month,Day,Hour,Minute,Value (Times are PST for temperature in C)
2019,07,08,00,00,12.60
2019,07,08,00,01,12.60
2019,07,08,00,02,12.60
2019,07,08,00,03,12.60
2019,07,08,00,04,12.60
2019,07,08,00,05,12.60
2019,07,08,00,06,12.60
2019,07,08,00,07,12.60
2019,07,08,00,08,12.60
2019,07,08,00,09,12.60
2019,07,08,00,10,12.60
2019,07,08,00,11,12.60
2019,07,08,00,12,12.60
2019,07,08,00,13,12.60
2019,07,08,00,14,12.50
2019,07,08,00,15,12.50
2019,07,08,00,16,12.50
2019,07,08,00,17,12.50
2019,07,08,00,18,12.50
2019,07,08,00,19,12.50
2019,07,08,00,20,12.50
2019,07,08,00,21,12.50
2019,07,08,00,22,12.50
2019,07,08,00,23,12.50
2019,07,08,00,24,12.50
2019,07,08,00,25,12.50
2019,07,08,00,26,12.50
2019,07,08,00,27,12.50
2019,07,08,00,28,12.50
2019,07,08,00,29,12.50
2019,07,08,00,30,12.50
2019,07,08,00,31,12.50
2019,07,08,00,32,12.50
2019,07,08,00,33,12.50
2019,07,08,00,34,12.50
2019,07,08,00,35,12.50
2019,07,08,00,36,12.50
2019,07,08,00,37,12.50
2019,07,08,00,38,12.50
2019,07,08,00,39,12.40
2019,07,08,00,40,12.40
2019,07,08,00,41,12.40
2019,07,08,00,42,12.40
2019,07,08,00,43,12.40
2019,07,08,00,44,12.40
2019,07,08,00,45,12.40
2019,07,08,00,46,12.40
2019,07,08,00,47,12.40
2019,07,08,00,48,12.40
2019,07,08,00,49,12.40
2019,07,08,00,50,12.40
2019,07,08,00,51,12.40
2019,07,08,00,52,12.40
2019,07,08,00,53,12.40
2019,07,08,00,54,12.40
2019,07,08,00,55,12.40
2019,07,08,00,56,12.40
2019,07,08,00,57,12.40
2019,07,08,00,58,12.40
2019,07,08,00,59,12.30
2019,07,08,01,00,12.30
2019,07,08,01,01,12.30
2019,07,08,01,02,12.30
2019,07,08,01,03,12.30
2019,07,08,01,04,12.30
2019,07,08,01,05,12.30
2019,07,08,01,06,12.30
2019,07,08,01,07,12.30
2019,07,08,01,08,12.30
2019,07,08,01,09,12.30
2019,07,08,01,10,12.20
2019,07,08,01,11,12.20
2019,07,08,01,12,12.20
2019,07,08,01,13,12.20
2019,07,08,01,14,12.20
2019,07,08,01,15,12.10
2019,07,08,01,16,12.10
2019,07,08,01,17,12.10
2019,07,08,01,18,12.10
2019,07,08,01,19,12.10
2019,07,08,01,20,12.10
2019,07,08,01,21,12.10
2019,07,08,01,22,12.10
2019,07,08,01,23,12.10
2019,07,08,01,24,12.10
2019,07,08,01,25,12.10
2019,07,08,01,26,12.10
2019,07,08,01,27,12.00
2019,07,08,01,28,12.00
2019,07,08,01,29,12.00
2019,07,08,01,30,12.00
2019,07,08,01,31,12.00
2019,07,08,01,32,11.90
2019,07,08,01,33,11.90
2019,07,08,01,34,11.90
2019,07,08,01,35,11.90
2019,07,08,01,36,11.90
2019,07,08,01,37,11.90
2019,07,08,01,38,11.90
2019,07,08,01,39,11.90
2019,07,08,01,40,11.90
2019,07,08,01,41,11.90
2019,07,08,01,42,11.90
2019,07,08,01,43,11.90
2019,07,08,01,44,11.90
2019,07,08,01,45,11.80
2019,07,08,01,46,11.80
2019,07,08,01,47,11.80
2019,07,08,01,48,11.80
2019,07,08,01,49,11.80
2019,07,08,01,50,11.80
2019,07,08,01,51,11.80
2019,07,08,01,52,11.80
2019,07,08,01,53,11.80
2019,07,08,01,54,11.80
2019,07,08,01,55,11.80
2019,07,08,01,56,11.80
2019,07,08,01,57,11.70
2019,07,08,01,58,11.70
2019,07,08,01,59,11.70
2019,07,08,02,00,11.60
2019,07,08,02,01,11.60
2019,07,08,02,02,11.60
2019,07,08,02,03,11.60
2019,07,08,02,04,11.60
2019,07,08,02,05,11.60
2019,07,08,02,06,11.60
2019,07,08,02,07,11.60
2019,07,08,02,08,11.60
2019,07,08,02,09,11.60
2019,07,08,02,10,11.50
2019,07,08,02,11,11.40
2019,07,08,02,12,11.40
2019,07,08,02,13,11.40
2019,07,08,02,14,11.40
2019,07,08,02,15,11.40
2019,07,08,02,16,11.40
2019,07,08,02,17,11.40
2019,07,08,02,18,11.40
2019,07,08,02,19,11.40
2019,07,08,02,20,11.40
2019,07,08,02,21,11.30
2019,07,08,02,22,11.30
2019,07,08,02,23,11.20
2019,07,08,02,24,11.20
2019,07,08,02,25,11.20
2019,07,08,02,26,11.10
2019,07,08,02,27,11.10
2019,07,08,02,28,11.10
2019,07,08,02,29,11.10
2019,07,08,02,30,11.10
2019,07,08,02,31,11.10
2019,07,08,02,32,11.10
2019,07,08,02,33,11.10
2019,07,08,02,34,11.10
2019,07,08,02,35,11.10
2019,07,08,02,36,11.10
2019,07,08,02,37,11.10
2019,07,08,02,38,11.10
2019,07,08,02,39,11.10
2019,07,08,02,40,11.10
2019,07,08,02,41,11.10
2019,07,08,02,42,11.10
2019,07,08,02,43,11.10
2019,07,08,02,44,11.10
2019,07,08,02,45,11.10
2019,07,08,02,46,11.10
2019,07,08,02,47,11.10
2019,07,08,02,48,11.10
2019,07,08,02,49,11.10
2019,07,08,02,50,11.20
2019,07,08,02,51,11.20
2019,07,08,02,52,11.20
2019,07,08,02,53,11.30
2019,07,08,02,54,11.30
2019,07,08,02,55,11.30
2019,07,08,02,56,11.40
2019,07,08,02,57,11.40
2019,07,08,02,58,11.40
2019,07,08,02,59,11.40
2019,07,08,03,00,11.40
2019,07,08,03,01,11.40
2019,07,08,03,02,11.30
2019,07,08,03,03,11.30
2019,07,08,03,04,11.20
2019,07,08,03,05,11.20
2019,07,08,03,06,11.20
2019,07,08,03,07,11.20
2019,07,08,03,08,11.20
2019,07,08,03,09,11.20
2019,07,08,03,10,11.20
2019,07,08,03,11,11.10
2019,07,08,03,12,11.10
2019,07,08,03,13,11.10
2019,07,08,03,14,11.10
2019,07,08,03,15,11.10
2019,07,08,03,16,11.20
2019,07,08,03,17,11.20
2019,07,08,03,18,11.20
2019,07,08,03,19,11.20
2019,07,08,03,20,11.10
2019,07,08,03,21,11.10
2019,07,08,03,22,11.10
2019,07,08,03,23,11.10
2019,07,08,03,24,11.10
2019,07,08,03,25,11.10
2019,07,08,03,26,11.10
2019,07,08,03,27,11.10
2019,07,08,03,28,11.10
2019,07,08,03,29,11.10
2019,07,08,03,30,11.10
2019,07,08,03,31,11.10
2019,07,08,03,32,11.10
2019,07,08,03,33,11.10
2019,07,08,03,34,11.10
2019,07,08,03,35,11.10
2019,07,08,03,36,11.10
2019,07,08,03,37,11.10
2019,07,08,03,38,11.10
2019,07,08,03,39,11.10
2019,07,08,03,40,11.10
2019,07,08,03,41,11.10
2019,07,08,03,42,11.10
2019,07,08,03,43,11.10
2019,07,08,03,44,11.10
2019,07,08,03,45,11.10
2019,07,08,03,46,11.10
2019,07,08,03,47,11.10
2019,07,08,03,48,11.10
2019,07,08,03,49,11.10
2019,07,08,03,50,11.10
2019,07,08,03,51,11.10
2019,07,08,03,52,11.10
2019,07,08,03,53,11.10
2019,07,08,03,54,11.10
2019,07,08,03,55,11.10
2019,07,08,03,56,11.10
2019,07,08,03,57,11.10
2019,07,08,03,58,11.10
2019,07,08,03,59,11.10
2019,07,08,04,00,11.10
2019,07,08,04,01,11.10
2019,07,08,04,02,11.10
2019,07,08,04,03,11.10
2019,07,08,04,04,11.10
2019,07,08,04,05,11.10
2019,07,08,04,06,11.10
2019,07,08,04,07,11.10
2019,07,08,04,08,11.10
2019,07,08,04,09,11.10
2019,07,08,04,10,11.10
2019,07,08,04,11,11.10
2019,07,08,04,12,11.10
2019,07,08,04,13,11.10
2019,07,08,04,14,11.10
2019,07,08,04,15,11.10
2019,07,08,04,16,11.20
2019,07,08,04,17,11.20
2019,07,08,04,18,11.30
2019,07,08,04,19,11.30
2019,07,08,04,20,11.30
2019,07,08,04,21,11.30
2019,07,08,04,22,11.40
2019,07,08,04,23,11.40
2019,07,08,04,24,11.40
2019,07,08,04,25,11.40
2019,07,08,04,26,11.40
2019,07,08,04,27,11.40
2019,07,08,04,28,11.40
2019,07,08,04,29,11.40
2019,07,08,04,30,11.40
2019,07,08,04,31,11.40
2019,07,08,04,32,11.50
2019,07,08,04,33,11.60
2019,07,08,04,34,11.60
2019,07,08,04,35,11.60
2019,07,08,04,36,11.60
2019,07,08,04,37,11.60
2019,07,08,04,38,11.60
2019,07,08,04,39,11.60
2019,07,08,04,40,11.60
2019,07,08,04,41,11.60
2019,07,08,04,42,11.60
2019,07,08,04,43,11.60
2019,07,08,04,44,11.60
2019,07,08,04,45,11.60
2019,07,08,04,46,11.60
2019,07,08,04,47,11.70
2019,07,08,04,48,11.70
2019,07,08,04,49,11.70
2019,07,08,04,50,11.70
2019,07,08,04,51,11.70
2019,07,08,04,52,11.70
2019,07,08,04,53,11.70
2019,07,08,04,54,11.70
2019,07,08,04,55,11.70
2019,07,08,04,56,11.70
2019,07,08,04,57,11.70
2019,07,08,04,58,11.70
2019,07,08,04,59,11.70
2019,07,08,05,00,11.70
2019,07,08,05,01,11.70
2019,07,08,05,02,11.70
2019,07,08,05,03,11.70
2019,07,08,05,04,11.70
2019,07,08,05,05,11.70
2019,07,08,05,06,11.70
2019,07,08,05,07,11.70
2019,07,08,05,08,11.70
2019,07,08,05,09,11.70
2019,07,08,05,10,11.80
2019,07,08,05,11,11.80
2019,07,08,05,12,11.80
2019,07,08,05,13,11.80
2019,07,08,05,14,11.80
2019,07,08,05,15,11.80
2019,07,08,05,16,11.80
2019,07,08,05,17,11.80
2019,07,08,05,18,11.80
2019,07,08,05,19,11.80
2019,07,08,05,20,11.80
2019,07,08,05,21,11.80
2019,07,08,05,22,11.80
2019,07,08,05,23,11.80
2019,07,08,05,24,11.80
2019,07,08,05,25,11.80
2019,07,08,05,26,11.80
2019,07,08,05,27,11.80
2019,07,08,05,28,11.80
2019,07,08,05,29,11.80
2019,07,08,05,30,11.80
2019,07,08,05,31,11.80
2019,07,08,05,32,11.80
2019,07,08,05,33,11.80
2019,07,08,05,34,11.80
2019,07,08,05,35,11.80
2019,07,08,05,36,11.80
2019,07,08,05,37,11.80
2019,07,08,05,38,11.80
2019,07,08,05,39,11.90
2019,07,08,05,40,11.90
2019,07,08,05,41,11.90
2019,07,08,05,42,11.90
2019,07,08,05,43,11.90
2019,07,08,05,44,11.90
2019,07,08,05,45,11.90
2019,07,08,05,46,11.90
2019,07,08,05,47,12.00
2019,07,08,05,48,12.00
2019,07,08,05,49,12.00
2019,07,08,05,50,12.00
2019,07,08,05,51,12.00
2019,07,08,05,52,12.00
2019,07,08,05,53,12.00
2019,07,08,05,54,12.00
2019,07,08,05,55,12.00
2019,07,08,05,56,12.00
2019,07,08,05,57,12.00
2019,07,08,05,58,12.00
2019,07,08,05,59,12.10
2019,07,08,06,00,12.10
2019,07,08,06,01,12.10
2019,07,08,06,02,12.10
2019,07,08,06,03,12.10
2019,07,08,06,04,12.10
2019,07,08,06,05,12.10
2019,07,08,06,06,12.20
2019,07,08,06,07,12.20
2019,07,08,06,08,12.30
2019,07,08,06,09,12.30
2019,07,08,06,10,12.30
2019,07,08,06,11,12.30
2019,07,08,06,12,12.30
2019,07,08,06,13,12.30
2019,07,08,06,14,12.30
2019,07,08,06,15,12.30
2019,07,08,06,16,12.30
2019,07,08,06,17,12.30
2019,07,08,06,18,12.30
2019,07,08,06,19,12.30
2019,07,08,06,20,12.30
2019,07,08,06,21,12.30
2019,07,08,06,22,12.40
2019,07,08,06,23,12.40
2019,07,08,06,24,12.40
2019,07,08,06,25,12.40
2019,07,08,06,26,12.50
2019,07,08,06,27,12.50
2019,07,08,06,28,12.50
2019,07,08,06,29,12.50
2019,07,08,06,30,12.50
2019,07,08,06,31,12.50
2019,07,08,06,32,12.60
2019,07,08,06,33,12.60
2019,07,08,06,34,12.60
2019,07,08,06,35,12.60
2019,07,08,06,36,12.60
2019,07,08,06,37,12.70
2019,07,08,06,38,12.70
2019,07,08,06,39,12.70
2019,07,08,06,40,12.80
2019,07,08,06,41,12.80
2019,07,08,06,42,12.80
2019,07,08,06,43,12.80
2019,07,08,06,44,12.80
2019,07,08,06,45,12.80
2019,07,08,06,46,12.80
2019,07,08,06,47,12.80
2019,07,08,06,48,12.80
2019,07,08,06,49,12.90
2019,07,08,06,50,12.90
2019,07,08,06,51,12.90
2019,07,08,06,52,12.90
2019,07,08,06,53,12.90
2019,07,08,06,54,12.90
2019,07,08,06,55,12.90
2019,07,08,06,56,12.90
2019,07,08,06,57,12.90
2019,07,08,06,58,13.00
2019,07,08,06,59,13.00
2019,07,08,07,00,13.00
2019,07,08,07,01,13.00
2019,07,08,07,02,13.00
2019,07,08,07,03,13.00
2019,07,08,07,04,13.00
2019,07,08,07,05,13.10
2019,07,08,07,06,13.10
2019,07,08,07,07,13.10
2019,07,08,07,08,13.10
2019,07,08,07,09,13.10
2019,07,08,07,10,13.20
2019,07,08,07,11,13.20
2019,07,08,07,12,13.20
2019,07,08,07,13,13.30
2019,07,08,07,14,13.30
2019,07,08,07,15,13.20
2019,07,08,07,16,13.10
2019,07,08,07,17,13.10
2019,07,08,07,18,13.10
2019,07,08,07,19,13.10
2019,07,08,07,20,13.00
2019,07,08,07,21,13.00
2019,07,08,07,22,13.10
2019,07,08,07,23,13.10
2019,07,08,07,24,13.10
2019,07,08,07,25,13.20
2019,07,08,07,26,13.20
2019,07,08,07,27,13.30
2019,07,08,07,28,13.30
2019,07,08,07,29,13.30
2019,07,08,07,30,13.40
2019,07,08,07,31,13.50
2019,07,08,07,32,13.50
2019,07,08,07,33,13.40
2019,07,08,07,34,13.40
2019,07,08,07,35,13.40
2019,07,08,07,36,13.30
2019,07,08,07,37,13.30
2019,07,08,07,38,13.20
2019,07,08,07,39,13.10
2019,07,08,07,40,13.10
2019,07,08,07,41,13.20
2019,07,08,07,42,13.20
2019,07,08,07,43,13.20
2019,07,08,07,44,13.10
2019,07,08,07,45,13.10
2019,07,08,07,46,13.10
2019,07,08,07,47,13.20
2019,07,08,07,48,13.30
2019,07,08,07,49,13.30
2019,07,08,07,50,13.50
2019,07,08,07,51,13.60
2019,07,08,07,52,13.70
2019,07,08,07,53,13.80
2019,07,08,07,54,13.90
2019,07,08,07,55,13.90
2019,07,08,07,56,13.90
2019,07,08,07,57,14.00
2019,07,08,07,58,14.00
2019,07,08,07,59,14.10
2019,07,08,08,00,14.10
2019,07,08,08,01,14.10
2019,07,08,08,02,14.10
2019,07,08,08,03,14.10
2019,07,08,08,04,14.10
2019,07,08,08,05,14.10
2019,07,08,08,06,14.10
2019,07,08,08,07,14.20
2019,07,08,08,08,14.20
2019,07,08,08,09,14.20
2019,07,08,08,10,14.20
2019,07,08,08,11,14.20
2019,07,08,08,12,14.20
2019,07,08,08,13,14.00
2019,07,08,08,14,14.00
2019,07,08,08,15,13.90
2019,07,08,08,16,13.80
2019,07,08,08,17,13.70
2019,07,08,08,18,13.70
2019,07,08,08,19,13.70
2019,07,08,08,20,13.60
2019,07,08,08,21,13.60
2019,07,08,08,22,13.60
2019,07,08,08,23,13.60
2019,07,08,08,24,13.60
2019,07,08,08,25,13.70
2019,07,08,08,26,13.70
2019,07,08,08,27,13.70
2019,07,08,08,28,13.70
2019,07,08,08,29,13.70
2019,07,08,08,30,13.70
2019,07,08,08,31,13.70
2019,07,08,08,32,13.70
2019,07,08,08,33,13.80
2019,07,08,08,34,13.90
2019,07,08,08,35,13.90
2019,07,08,08,36,13.90
2019,07,08,08,37,13.90
2019,07,08,08,38,14.00
2019,07,08,08,39,13.90
2019,07,08,08,40,14.00
2019,07,08,08,41,14.00
2019,07,08,08,42,13.90
2019,07,08,08,43,14.00
2019,07,08,08,44,14.00
2019,07,08,08,45,14.10
2019,07,08,08,46,14.20
2019,07,08,08,47,14.20
2019,07,08,08,48,14.30
2019,07,08,08,49,14.30
2019,07,08,08,50,14.30
2019,07,08,08,51,14.30
2019,07,08,08,52,14.30
2019,07,08,08,53,14.20
2019,07,08,08,54,14.20
2019,07,08,08,55,14.20
2019,07,08,08,56,14.20
2019,07,08,08,57,14.20
2019,07,08,08,58,14.20
2019,07,08,08,59,14.20
2019,07,08,09,00,14.10
2019,07,08,09,01,14.10
2019,07,08,09,02,14.10
2019,07,08,09,03,14.10
2019,07,08,09,04,14.10
2019,07,08,09,05,14.20
2019,07,08,09,06,14.20
2019,07,08,09,07,14.20
2019,07,08,09,08,14.30
2019,07,08,09,09,14.40
2019,07,08,09,10,14.50
2019,07,08,09,11,14.50
2019,07,08,09,12,14.60
2019,07,08,09,13,14.60
2019,07,08,09,14,14.50
2019,07,08,09,15,14.50
2019,07,08,09,16,14.40
2019,07,08,09,17,14.40
2019,07,08,09,18,14.50
2019,07,08,09,19,14.60
2019,07,08,09,20,14.70
2019,07,08,09,21,14.80
2019,07,08,09,22,14.80
2019,07,08,09,23,14.90
2019,07,08,09,24,14.90
2019,07,08,09,25,14.90
2019,07,08,09,26,15.10
2019,07,08,09,27,15.20
2019,07,08,09,28,15.30
2019,07,08,09,29,15.30
2019,07,08,09,30,15.30
2019,07,08,09,31,15.30
2019,07,08,09,32,15.30
2019,07,08,09,33,15.30
2019,07,08,09,34,15.30
2019,07,08,09,35,15.30
2019,07,08,09,36,15.30
2019,07,08,09,37,15.40
2019,07,08,09,38,15.50
2019,07,08,09,39,15.70
2019,07,08,09,40,15.80
2019,07,08,09,41,15.90
2019,07,08,09,42,15.90
2019,07,08,09,43,15.90
2019,07,08,09,44,15.90
2019,07,08,09,45,15.90
2019,07,08,09,46,16.10
2019,07,08,09,47,16.10
2019,07,08,09,48,16.20
2019,07,08,09,49,16.30
2019,07,08,09,50,16.40
2019,07,08,09,51,16.40
2019,07,08,09,52,16.50
2019,07,08,09,53,16.60
2019,07,08,09,54,16.60
2019,07,08,09,55,16.70
2019,07,08,09,56,16.70
2019,07,08,09,57,16.80
2019,07,08,09,58,16.80
2019,07,08,09,59,16.90
2019,07,08,10,00,16.90
2019,07,08,10,01,16.90
2019,07,08,10,02,17.00
2019,07,08,10,03,17.00
2019,07,08,10,04,17.10
2019,07,08,10,05,17.20
2019,07,08,10,06,17.30
2019,07,08,10,07,17.30
2019,07,08,10,08,17.30
2019,07,08,10,09,17.40
2019,07,08,10,10,17.50
2019,07,08,10,11,17.50
2019,07,08,10,12,17.60
2019,07,08,10,13,17.70
2019,07,08,10,14,17.80
2019,07,08,10,15,17.90
2019,07,08,10,16,18.00
2019,07,08,10,17,18.10
2019,07,08,10,18,18.20
2019,07,08,10,19,18.20
2019,07,08,10,20,18.20
2019,07,08,10,21,18.20
2019,07,08,10,22,18.20
2019,07,08,10,23,18.20
2019,07,08,10,24,18.20
2019,07,08,10,25,18.20
2019,07,08,10,26,18.10
2019,07,08,10,27,18.10
2019,07,08,10,28,18.10
2019,07,08,10,29,18.20
2019,07,08,10,30,18.20
2019,07,08,10,31,18.20
2019,07,08,10,32,18.40
2019,07,08,10,33,18.50
2019,07,08,10,34,18.50
2019,07,08,10,35,18.50
2019,07,08,10,36,18.50
2019,07,08,10,37,18.50
2019,07,08,10,38,18.60
2019,07,08,10,39,18.50
2019,07,08,10,40,18.50
2019,07,08,10,41,18.40
2019,07,08,10,42,18.40
2019,07,08,10,43,18.20
2019,07,08,10,44,18.00
2019,07,08,10,45,17.80
2019,07,08,10,46,17.80
2019,07,08,10,47,17.90
2019,07,08,10,48,17.80
2019,07,08,10,49,17.60
2019,07,08,10,50,17.30
2019,07,08,10,51,17.20
2019,07,08,10,52,17.10
2019,07,08,10,53,17.00
2019,07,08,10,54,16.90
2019,07,08,10,55,16.90
2019,07,08,10,56,16.80
2019,07,08,10,57,16.70
2019,07,08,10,58,16.60
2019,07,08,10,59,16.40
2019,07,08,11,00,16.40
2019,07,08,11,01,16.30
2019,07,08,11,02,16.20
2019,07,08,11,03,16.10
2019,07,08,11,04,16.00
2019,07,08,11,05,15.90
2019,07,08,11,06,15.90
2019,07,08,11,07,15.80
2019,07,08,11,08,16.00
2019,07,08,11,09,16.20
2019,07,08,11,10,16.30
2019,07,08,11,11,16.40
2019,07,08,11,12,16.30
2019,07,08,11,13,16.20
2019,07,08,11,14,16.10
2019,07,08,11,15,16.10
2019,07,08,11,16,16.10
2019,07,08,11,17,16.20
2019,07,08,11,18,16.30
2019,07,08,11,19,16.30
2019,07,08,11,20,16.20
2019,07,08,11,21,16.20
2019,07,08,11,22,16.30
2019,07,08,11,23,16.30
2019,07,08,11,24,16.40
2019,07,08,11,25,16.40
2019,07,08,11,26,16.40
2019,07,08,11,27,16.40
2019,07,08,11,28,16.50
2019,07,08,11,29,16.60
2019,07,08,11,30,16.60
2019,07,08,11,31,16.60
2019,07,08,11,32,16.70
2019,07,08,11,33,16.80
2019,07,08,11,34,16.90
2019,07,08,11,35,17.00
2019,07,08,11,36,17.10
2019,07,08,11,37,17.10
2019,07,08,11,38,17.30
2019,07,08,11,39,17.30
2019,07,08,11,40,17.20
2019,07,08,11,41,17.10
2019,07,08,11,42,16.90
2019,07,08,11,43,17.00
2019,07,08,11,44,17.10
2019,07,08,11,45,17.20
2019,07,08,11,46,17.20
2019,07,08,11,47,17.20
2019,07,08,11,48,17.20
2019,07,08,11,49,17.00
2019,07,08,11,50,17.00
2019,07,08,11,51,16.90
2019,07,08,11,52,16.90
2019,07,08,11,53,16.80
2019,07,08,11,54,16.70
2019,07,08,11,55,16.70
2019,07,08,11,56,16.70
2019,07,08,11,57,16.80
2019,07,08,11,58,16.90
2019,07,08,11,59,16.90
2019,07,08,12,00,16.90
2019,07,08,12,01,17.00
2019,07,08,12,02,17.10
2019,07,08,12,03,17.10
2019,07,08,12,04,17.00
2019,07,08,12,05,17.00
2019,07,08,12,06,16.90
2019,07,08,12,07,16.90
2019,07,08,12,08,16.80
2019,07,08,12,09,16.90
2019,07,08,12,10,16.90
2019,07,08,12,11,16.90
2019,07,08,12,12,16.90
2019,07,08,12,13,17.00
2019,07,08,12,14,17.00
2019,07,08,12,15,17.10
2019,07,08,12,16,17.20
2019,07,08,12,17,17.20
2019,07,08,12,18,17.20
2019,07,08,12,19,17.30
2019,07,08,12,20,17.30
2019,07,08,12,21,17.30
2019,07,08,12,22,17.40
2019,07,08,12,23,17.50
2019,07,08,12,24,17.50
2019,07,08,12,25,17.40
2019,07,08,12,26,17.30
2019,07,08,12,27,17.30
2019,07,08,12,28,17.30
2019,07,08,12,29,17.30
2019,07,08,12,30,17.50
2019,07,08,12,31,17.70
2019,07,08,12,32,17.90
2019,07,08,12,33,18.00
2019,07,08,12,34,18.00
2019,07,08,12,35,18.10
2019,07,08,12,36,18.10
2019,07,08,12,37,18.20
2019,07,08,12,38,18.20
2019,07,08,12,39,18.20
2019,07,08,12,40,18.40
2019,07,08,12,41,18.60
2019,07,08,12,42,18.80
2019,07,08,12,43,18.90
2019,07,08,12,44,18.90
2019,07,08,12,45,18.90
2019,07,08,12,46,18.90
2019,07,08,12,47,18.90
2019,07,08,12,48,18.70
2019,07,08,12,49,18.60
2019,07,08,12,50,18.50
2019,07,08,12,51,18.40
2019,07,08,12,52,18.40
2019,07,08,12,53,18.30
2019,07,08,12,54,18.30
2019,07,08,12,55,18.40
2019,07,08,12,56,18.40
2019,07,08,12,57,18.40
2019,07,08,12,58,18.30
2019,07,08,12,59,18.30
2019,07,08,13,00,18.20
2019,07,08,13,01,18.20
2019,07,08,13,02,18.20
2019,07,08,13,03,18.10
2019,07,08,13,04,18.10
2019,07,08,13,05,18.00
2019,07,08,13,06,18.00
2019,07,08,13,07,18.10
2019,07,08,13,08,18.00
2019,07,08,13,09,18.00
2019,07,08,13,10,18.10
2019,07,08,13,11,18.20
2019,07,08,13,12,18.20
2019,07,08,13,13,18.20
2019,07,08,13,14,18.20
2019,07,08,13,15,18.30
2019,07,08,13,16,18.50
2019,07,08,13,17,18.60
2019,07,08,13,18,18.80
2019,07,08,13,19,18.80
2019,07,08,13,20,18.80
2019,07,08,13,21,18.90
2019,07,08,13,22,18.90
2019,07,08,13,23,18.90
2019,07,08,13,24,18.80
2019,07,08,13,25,18.70
2019,07,08,13,26,18.70
2019,07,08,13,27,18.60
2019,07,08,13,28,18.60
2019,07,08,13,29,18.60
2019,07,08,13,30,18.70
2019,07,08,13,31,18.80
2019,07,08,13,32,19.00
2019,07,08,13,33,19.10
2019,07,08,13,34,19.30
2019,07,08,13,35,19.40
2019,07,08,13,36,19.40
2019,07,08,13,37,19.50
2019,07,08,13,38,19.50
2019,07,08,13,39,19.60
2019,07,08,13,40,19.70
2019,07,08,13,41,19.70
2019,07,08,13,42,19.60
2019,07,08,13,43,19.70
2019,07,08,13,44,19.70
2019,07,08,13,45,19.70
2019,07,08,13,46,19.50
2019,07,08,13,47,19.40
2019,07,08,13,48,19.50
2019,07,08,13,49,19.60
2019,07,08,13,50,19.80
2019,07,08,13,51,20.10
2019,07,08,13,52,20.20
2019,07,08,13,53,20.30
2019,07,08,13,54,20.50
2019,07,08,13,55,20.60
2019,07,08,13,56,20.70
2019,07,08,13,57,20.80
2019,07,08,13,58,21.00
2019,07,08,13,59,21.20
2019,07,08,14,00,21.30
2019,07,08,14,01,21.30
2019,07,08,14,02,21.20
2019,07,08,14,03,21.00
2019,07,08,14,04,20.80
2019,07,08,14,05,20.60
2019,07,08,14,06,20.40
2019,07,08,14,07,20.40
2019,07,08,14,08,20.20
2019,07,08,14,09,20.10
2019,07,08,14,10,20.00
2019,07,08,14,11,20.10
2019,07,08,14,12,20.10
2019,07,08,14,13,20.20
2019,07,08,14,14,20.30
2019,07,08,14,15,20.30
2019,07,08,14,16,20.30
2019,07,08,14,17,20.20
2019,07,08,14,18,20.20
2019,07,08,14,19,20.00
2019,07,08,14,20,20.00
2019,07,08,14,21,20.10
2019,07,08,14,22,20.20
2019,07,08,14,23,20.20
2019,07,08,14,24,20.10
2019,07,08,14,25,20.00
2019,07,08,14,26,19.80
2019,07,08,14,27,19.60
2019,07,08,14,28,19.50
2019,07,08,14,29,19.40
2019,07,08,14,30,19.40
2019,07,08,14,31,19.30
2019,07,08,14,32,19.20
2019,07,08,14,33,19.20
2019,07,08,14,34,19.10
2019,07,08,14,35,19.10
2019,07,08,14,36,19.10
2019,07,08,14,37,19.10
2019,07,08,14,38,19.10
2019,07,08,14,39,19.20
2019,07,08,14,40,19.20
2019,07,08,14,41,19.20
2019,07,08,14,42,19.20
2019,07,08,14,43,19.20
2019,07,08,14,44,19.30
2019,07,08,14,45,19.40
2019,07,08,14,46,19.40
2019,07,08,14,47,19.40
2019,07,08,14,48,19.40
2019,07,08,14,49,19.50
2019,07,08,14,50,19.60
2019,07,08,14,51,19.80
2019,07,08,14,52,19.90
2019,07,08,14,53,20.10
2019,07,08,14,54,20.20
2019,07,08,14,55,20.20
2019,07,08,14,56,20.10
2019,07,08,14,57,19.90
2019,07,08,14,58,19.90
2019,07,08,14,59,19.90
2019,07,08,15,00,19.80
2019,07,08,15,01,19.60
2019,07,08,15,02,19.50
2019,07,08,15,03,19.50
2019,07,08,15,04,19.50
2019,07,08,15,05,19.50
2019,07,08,15,06,19.60
2019,07,08,15,07,19.80
2019,07,08,15,08,19.90
2019,07,08,15,09,20.00
2019,07,08,15,10,20.20
2019,07,08,15,11,20.20
2019,07,08,15,12,20.10
2019,07,08,15,13,20.10
2019,07,08,15,14,20.00
2019,07,08,15,15,19.90
2019,07,08,15,16,19.80
2019,07,08,15,17,19.80
2019,07,08,15,18,19.80
2019,07,08,15,19,19.80
2019,07,08,15,20,19.70
2019,07,08,15,21,19.70
2019,07,08,15,22,19.60
2019,07,08,15,23,19.50
2019,07,08,15,24,19.40
2019,07,08,15,25,19.40
2019,07,08,15,26,19.40
2019,07,08,15,27,19.50
2019,07,08,15,28,19.60
2019,07,08,15,29,19.70
2019,07,08,15,30,19.60
2019,07,08,15,31,19.60
2019,07,08,15,32,19.60
2019,07,08,15,33,19.60
2019,07,08,15,34,19.60
2019,07,08,15,35,19.50
2019,07,08,15,36,19.50
2019,07,08,15,37,19.60
2019,07,08,15,38,19.60
2019,07,08,15,39,19.50
2019,07,08,15,40,19.50
2019,07,08,15,41,19.50
2019,07,08,15,42,19.60
2019,07,08,15,43,19.70
2019,07,08,15,44,19.70
2019,07,08,15,45,19.60
2019,07,08,15,46,19.50
2019,07,08,15,47,19.50
2019,07,08,15,48,19.40
2019,07,08,15,49,19.40
2019,07,08,15,50,19.50
2019,07,08,15,51,19.50
2019,07,08,15,52,19.40
2019,07,08,15,53,19.50
2019,07,08,15,54,19.70
2019,07,08,15,55,19.80
2019,07,08,15,56,19.80
2019,07,08,15,57,19.70
2019,07,08,15,58,19.80
2019,07,08,15,59,19.80
2019,07,08,16,00,19.80
2019,07,08,16,01,19.80
2019,07,08,16,02,19.80
2019,07,08,16,03,20.00
2019,07,08,16,04,20.10
2019,07,08,16,05,19.90
2019,07,08,16,06,19.90
2019,07,08,16,07,19.90
2019,07,08,16,08,19.90
2019,07,08,16,09,19.90
2019,07,08,16,10,19.90
2019,07,08,16,11,20.00
2019,07,08,16,12,20.00
2019,07,08,16,13,19.90
2019,07,08,16,14,19.90
2019,07,08,16,15,19.90
2019,07,08,16,16,20.00
2019,07,08,16,17,20.10
2019,07,08,16,18,20.20
2019,07,08,16,19,20.20
2019,07,08,16,20,20.20
2019,07,08,16,21,20.10
2019,07,08,16,22,20.10
2019,07,08,16,23,19.90
2019,07,08,16,24,19.90
2019,07,08,16,25,19.90
2019,07,08,16,26,19.90
2019,07,08,16,27,19.90
2019,07,08,16,28,19.90
2019,07,08,16,29,19.90
2019,07,08,16,30,19.90
2019,07,08,16,31,20.00
2019,07,08,16,32,20.10
2019,07,08,16,33,20.10
2019,07,08,16,34,20.10
2019,07,08,16,35,20.10
2019,07,08,16,36,20.20
2019,07,08,16,37,20.20
2019,07,08,16,38,20.20
2019,07,08,16,39,20.20
2019,07,08,16,40,20.10
2019,07,08,16,41,20.00
2019,07,08,16,42,19.90
2019,07,08,16,43,19.90
2019,07,08,16,44,20.00
2019,07,08,16,45,20.10
2019,07,08,16,46,20.10
2019,07,08,16,47,20.10
2019,07,08,16,48,20.10
2019,07,08,16,49,20.10
2019,07,08,16,50,20.10
2019,07,08,16,51,20.10
2019,07,08,16,52,20.10
2019,07,08,16,53,20.10
2019,07,08,16,54,20.10
2019,07,08,16,55,20.10
2019,07,08,16,56,20.10
2019,07,08,16,57,20.20
2019,07,08,16,58,20.20
2019,07,08,16,59,20.20
2019,07,08,17,00,20.20
2019,07,08,17,01,20.20
2019,07,08,17,02,20.10
2019,07,08,17,03,20.00
2019,07,08,17,04,19.90
2019,07,08,17,05,19.90
2019,07,08,17,06,20.10
2019,07,08,17,07,19.90
2019,07,08,17,08,19.90
2019,07,08,17,09,19.90
2019,07,08,17,10,19.90
2019,07,08,17,11,19.90
2019,07,08,17,12,19.90
2019,07,08,17,13,20.00
2019,07,08,17,14,20.10
2019,07,08,17,15,20.10
2019,07,08,17,16,20.20
2019,07,08,17,17,20.30
2019,07,08,17,18,20.40
2019,07,08,17,19,20.40